Tracking 28790 objects as of 19-Apr-2024
HD Live streaming from Space Station
objects crossing your sky now

STARLINK-4433

Track STARLINK-4433 now!
10-day predictions
STARLINK-4433 is classified as:


NORAD ID: 53478
Int'l Code: 2022-099P
Perigee: 569.4 km
Apogee: 570.9 km
Inclination: 97.7 °
Period: 95.9 minutes
Semi major axis: 6941 km
RCS: Unknown
Launch date: August 12, 2022
Source: United States (US)
Launch site: AIR FORCE WESTERN TEST RANGE (AFWTR)
Your satellite tracking list
Your tracking list is empty




NASA's NSSDC Master Catalog

Two Line Element Set (TLE):
1 53478U 22099P   24109.85526686  .00000874  00000-0  72621-4 0  9992
2 53478  97.6540 231.5653 0001071 120.1372 239.9959 15.01250794 92483
Source of the keplerian elements: AFSPC